Location: Gwatt
(46.7204°N, 7.6223°E)
Time: 17:30:16
(UTC+00:00)

Ariane Rocket - Pass Details

Date: 18 September 2020
Orbit: 760 x 770 km, 98.7° (Epoch: 30 October)

Event Time Altitude Azimuth Distance (km) Brightness Sun altitude
Exits shadow 19:49:57 11° 194° (SSW) 2,231 5.2 -23.0°
Maximum altitude 19:54:30 39° 262° (W) 1,129 4.2 -23.7°
Drops below altitude 10° 19:59:16 10° 331° (NNW) 2,313 6.3 -24.4°
Sets 20:01:44 0° 340° (NNW) 3,246 7.0 -24.7°
